Location: Newark
(27.9675°N, 86.8869°E)
Time: 15:02:07
(UTC+00:00)

Altair - Pass Details

Date: 24 October 2019
Orbit: 1502 x 1682 km, 47.2° (Epoch: 13 November)

Event Time Altitude Azimuth Distance (km) Brightness Sun altitude
Rises 04:46:37 0° 260° (W) 4,669 9.9 46.9°
Reaches altitude 10° 04:49:57 10° 268° (W) 3,708 9.5 47.2°
Maximum altitude 04:58:30 38° 334° (NNW) 2,243 8.4 48.0°
Drops below altitude 10° 05:07:24 10° 40° (NE) 3,843 9.5 48.6°
Sets 05:10:57 0° 48° (NE) 4,856 10.0 48.9°
